Location: Ahausen
(50.4985°N, 8.2722°E)
Time: 00:45:44
(UTC+00:00)

Lacrosse 5 rocket - Pass Details

Date: 18 September 2020
Orbit: 460 x 635 km, 57.0° (Epoch: 23 October)

Event Time Altitude Azimuth Distance (km) Brightness Sun altitude
Rises 18:06:53 0° 247° (WSW) 2,717 5.9 -6.1°
Reaches altitude 10° 18:09:04 10° 250° (WSW) 1,855 5.1 -6.5°
Maximum altitude 18:13:16 66° 333° (NNW) 645 1.8 -7.1°
Drops below altitude 10° 18:17:44 10° 56° (ENE) 1,964 3.7 -7.8°
Enters shadow 18:19:33 - 59° (ENE) 2,681 4.4 -8.1°
